• In France
  • List of Countries
  • For 7 days
  • Water Temperature
  • Satellite Maps
  • Weather Map
  • Weather Widgets
  • user-avatar
    Login

    Hourly Weather Kalat

    Today, 24 September, Sunday

    Time Temperature Precipitation Wind Pressure Humidity
    00:00 +3°C° 0 mm 1 mps 478 mmHg 63%
    01:00 +2°C° 0 mm 1 mps 478 mmHg 64%
    02:00 +2°C° 0 mm 1 mps 477 mmHg 65%
    03:00 +2°C° 0 mm 1 mps 477 mmHg 65%
    04:00 +2°C° 0 mm 1 mps 477 mmHg 66%
    05:00 -2°C° 0 mm 2 mps 476 mmHg 70%
    06:00 +1°C° 0 mm 1 mps 477 mmHg 66%
    07:00 +2°C° 0 mm 1 mps 478 mmHg 62%
    08:00 +3°C° 0 mm 1 mps 478 mmHg 58%
    09:00 +4°C° 0 mm 1 mps 479 mmHg 52%
    10:00 +4°C° 0 mm 2 mps 480 mmHg 46%
    11:00 +5°C° 0 mm 2 mps 480 mmHg 35%
    12:00 +6°C° 0 mm 2 mps 481 mmHg 35%
    13:00 +7°C° 0 mm 2 mps 481 mmHg 35%
    14:00 +7°C° 0 mm 3 mps 482 mmHg 35%
    15:00 +7°C° 0 mm 3 mps 481 mmHg 37%
    16:00 +5°C° 0 mm 3 mps 481 mmHg 39%
    17:00 +5°C° 0 mm 3 mps 481 mmHg 41%
    18:00 +4°C° 0 mm 3 mps 480 mmHg 45%
    19:00 +4°C° 0 mm 2 mps 480 mmHg 50%
    20:00 +3°C° 0 mm 2 mps 479 mmHg 54%
    21:00 +2°C° 0 mm 2 mps 479 mmHg 56%
    22:00 +1°C° 0 mm 2 mps 478 mmHg 59%
    23:00 +1°C° 0 mm 2 mps 478 mmHg 61%

    Tomorrow, 25 September, Monday

    Time Temperature Precipitation Wind Pressure Humidity
    00:00 +1°C° 0 mm 2 mps 478 mmHg 61%
    01:00 -1°C° 0 mm 2 mps 477 mmHg 62%
    02:00 -1°C° 0 mm 2 mps 477 mmHg 63%
    03:00 -1°C° 0 mm 2 mps 477 mmHg 62%
    04:00 -1°C° 0 mm 2 mps 477 mmHg 61%
    05:00 -2°C° 0 mm 2 mps 477 mmHg 61%
    06:00 -1°C° 0 mm 2 mps 477 mmHg 55%
    07:00 +1°C° 0 mm 2 mps 478 mmHg 50%
    08:00 0°C° 0 mm 3 mps 478 mmHg 45%
    09:00 +1°C° 0 mm 3 mps 479 mmHg 39%
    10:00 +3°C° 0 mm 3 mps 480 mmHg 32%
    11:00 +4°C° 0 mm 3 mps 480 mmHg 26%
    12:00 +4°C° 0 mm 3 mps 481 mmHg 26%
    13:00 +5°C° 0 mm 3 mps 481 mmHg 25%
    14:00 +5°C° 0 mm 3 mps 481 mmHg 25%
    15:00 +5°C° 0 mm 3 mps 481 mmHg 26%
    16:00 +5°C° 0 mm 3 mps 480 mmHg 28%
    17:00 +4°C° 0 mm 3 mps 480 mmHg 30%
    18:00 +3°C° 0 mm 3 mps 480 mmHg 33%
    19:00 +3°C° 0 mm 2 mps 479 mmHg 37%
    20:00 +2°C° 0 mm 2 mps 479 mmHg 41%
    21:00 +2°C° 0 mm 2 mps 478 mmHg 42%
    22:00 +1°C° 0 mm 2 mps 478 mmHg 43%
    23:00 +1°C° 0 mm 2 mps 478 mmHg 45%

    Day after tomorrow, 26 September, Tuesday

    Time Temperature Precipitation Wind Pressure Humidity
    00:00 +1°C° 0 mm 2 mps 478 mmHg 44%
    01:00 -1°C° 0 mm 2 mps 477 mmHg 44%
    02:00 -1°C° 0 mm 2 mps 477 mmHg 44%
    03:00 -1°C° 0 mm 2 mps 477 mmHg 43%
    04:00 -1°C° 0 mm 2 mps 477 mmHg 42%
    05:00 -2°C° 0 mm 2 mps 477 mmHg 40%
    06:00 -1°C° 0 mm 2 mps 478 mmHg 35%
    07:00 +1°C° 0 mm 2 mps 478 mmHg 30%
    08:00 +2°C° 0 mm 2 mps 479 mmHg 25%
    09:00 +4°C° 0 mm 2 mps 480 mmHg 22%
    10:00 +6°C° 0 mm 1 mps 481 mmHg 19%
    11:00 +8°C° 0 mm 1 mps 482 mmHg 16%
    12:00 +7°C° 0 mm 2 mps 482 mmHg 16%
    13:00 +8°C° 0 mm 2 mps 482 mmHg 17%
    14:00 +9°C° 0 mm 2 mps 482 mmHg 17%
    15:00 +8°C° 0 mm 2 mps 482 mmHg 19%
    16:00 +8°C° 0 mm 3 mps 482 mmHg 21%
    17:00 +8°C° 0 mm 3 mps 482 mmHg 23%
    18:00 +7°C° 0 mm 2 mps 481 mmHg 27%
    19:00 +5°C° 0 mm 2 mps 481 mmHg 32%
    20:00 +5°C° 0 mm 1 mps 480 mmHg 37%
    21:00 +5°C° 0 mm 1 mps 480 mmHg 39%
    22:00 +4°C° 0 mm 1 mps 480 mmHg 40%
    23:00 +4°C° 0 mm 1 mps 480 mmHg 41%

    27 September, Wednesday

    Time Temperature Precipitation Wind Pressure Humidity
    00:00 +3°C° 0 mm 1 mps 479 mmHg 40%
    01:00 +3°C° 0 mm 1 mps 479 mmHg 39%
    02:00 +3°C° 0 mm 1 mps 479 mmHg 39%
    03:00 +3°C° 0 mm 1 mps 478 mmHg 38%
    04:00 +1°C° 0 mm 2 mps 478 mmHg 37%
    05:00 +1°C° 0 mm 2 mps 478 mmHg 36%
    06:00 +2°C° 0 mm 2 mps 479 mmHg 32%
    07:00 +3°C° 0 mm 2 mps 480 mmHg 28%
    08:00 +4°C° 0 mm 2 mps 481 mmHg 24%
    09:00 +5°C° 0 mm 2 mps 481 mmHg 22%
    10:00 +6°C° 0 mm 2 mps 482 mmHg 20%
    11:00 +7°C° 0 mm 2 mps 483 mmHg 19%
    12:00 +8°C° 0 mm 3 mps 483 mmHg 19%
    13:00 +8°C° 0 mm 3 mps 483 mmHg 20%
    14:00 +9°C° 0 mm 3 mps 483 mmHg 20%
    15:00 +8°C° 0 mm 3 mps 483 mmHg 22%
    16:00 +8°C° 0 mm 3 mps 482 mmHg 23%
    17:00 +8°C° 0 mm 3 mps 482 mmHg 25%
    18:00 +5°C° 0 mm 3 mps 481 mmHg 29%
    19:00 +5°C° 0 mm 2 mps 481 mmHg 33%
    20:00 +4°C° 0 mm 2 mps 481 mmHg 37%
    21:00 +4°C° 0 mm 2 mps 480 mmHg 38%
    22:00 +3°C° 0 mm 2 mps 480 mmHg 40%
    23:00 +3°C° 0 mm 2 mps 479 mmHg 41%

    28 September, Thursday

    Time Temperature Precipitation Wind Pressure Humidity
    00:00 +2°C° 0 mm 2 mps 479 mmHg 40%
    01:00 +2°C° 0 mm 2 mps 479 mmHg 40%
    02:00 +2°C° 0 mm 2 mps 478 mmHg 39%
    03:00 +2°C° 0 mm 2 mps 478 mmHg 37%
    04:00 +1°C° 0 mm 2 mps 478 mmHg 36%
    05:00 +1°C° 0 mm 2 mps 477 mmHg 34%
    06:00 +2°C° 0 mm 2 mps 478 mmHg 30%
    07:00 +4°C° 0 mm 2 mps 479 mmHg 26%
    08:00 +6°C° 0 mm 1 mps 480 mmHg 22%
    09:00 +6°C° 0 mm 2 mps 481 mmHg 20%
    10:00 +7°C° 0 mm 2 mps 482 mmHg 18%
    11:00 +8°C° 0 mm 2 mps 482 mmHg 16%
    12:00 +9°C° 0 mm 2 mps 483 mmHg 16%
    13:00 +10°C° 0 mm 3 mps 483 mmHg 16%
    14:00 +10°C° 0 mm 3 mps 483 mmHg 17%
    15:00 +10°C° 0 mm 3 mps 482 mmHg 18%
    16:00 +8°C° 0 mm 4 mps 482 mmHg 20%
    17:00 +7°C° 0 mm 4 mps 482 mmHg 21%
    18:00 +7°C° 0 mm 3 mps 481 mmHg 25%
    19:00 +5°C° 0 mm 3 mps 481 mmHg 29%
    20:00 +4°C° 0 mm 2 mps 480 mmHg 33%
    21:00 +4°C° 0 mm 2 mps 480 mmHg 35%
    22:00 +3°C° 0 mm 2 mps 480 mmHg 37%
    23:00 +3°C° 0 mm 2 mps 480 mmHg 39%

    29 September, Friday

    Time Temperature Precipitation Wind Pressure Humidity
    00:00 +2°C° 0 mm 2 mps 479 mmHg 39%
    01:00 +2°C° 0 mm 2 mps 479 mmHg 39%
    02:00 +2°C° 0 mm 2 mps 478 mmHg 39%
    03:00 +1°C° 0 mm 2 mps 478 mmHg 38%
    04:00 +1°C° 0 mm 2 mps 478 mmHg 38%
    05:00 +1°C° 0 mm 2 mps 478 mmHg 38%
    06:00 +1°C° 0 mm 2 mps 478 mmHg 35%
    07:00 +2°C° 0 mm 2 mps 479 mmHg 33%
    08:00 +2°C° 0 mm 3 mps 480 mmHg 30%
    09:00 +3°C° 0 mm 3 mps 480 mmHg 29%
    10:00 +4°C° 0 mm 3 mps 481 mmHg 27%
    11:00 +5°C° 0 mm 3 mps 482 mmHg 26%
    12:00 +7°C° 0 mm 3 mps 482 mmHg 25%
    13:00 +7°C° 0 mm 3 mps 482 mmHg 25%
    14:00 +7°C° 0 mm 4 mps 482 mmHg 24%
    15:00 +6°C° 0 mm 4 mps 482 mmHg 27%
    16:00 +6°C° 0 mm 4 mps 481 mmHg 29%
    17:00 +5°C° 0 mm 4 mps 481 mmHg 31%
    18:00 +4°C° 0 mm 3 mps 481 mmHg 38%
    19:00 +3°C° 0 mm 3 mps 480 mmHg 44%
    20:00 +3°C° 0 mm 2 mps 480 mmHg 50%
    21:00 +2°C° 0 mm 2 mps 480 mmHg 53%
    22:00 +2°C° 0 mm 2 mps 480 mmHg 55%
    23:00 +2°C° 0 mm 2 mps 479 mmHg 58%
    Show more